GW0890 Weather Reports


time (UTC)temp
C
wind
direction
speed
KPH
gust
KPH
rain 1hr
cm
rain 24hr
cm
rain mn
cm
humidity
%
barometer
mb
20260504180052 21 55 8.0 24.1 0.00 0.00 0.00 55 1009.5
20260504174550 21 69 12.9 24.1 0.00 0.00 0.00 56 1009.3
20260504173049 20 33 8.0 32.2 0.00 0.00 0.00 60 1009.4
20260504171544 20 315 17.7 30.6 0.00 0.00 0.00 59 1009.4
20260504081506 6 201 0.0 8.0 0.00 0.00 0.00 90 1012.7
20260504050005 8 217 0.0 6.4 0.00 0.00 0.00 89 1014.1
20260504044510 8 217 1.6 8.0 0.00 0.00 0.00 87 1014.3
20260504043032 8 217 0.0 3.2 0.00 0.00 0.00 86 1014.4
20260504041530 8 216 0.0 6.4 0.00 0.00 0.00 85 1014.3
20260504040026 9 215 0.0 3.2 0.00 0.00 0.00 83 1014.6
20260504034534 9 216 3.2 6.4 0.00 0.00 0.00 81 1014.5
20260504033023 9 202 3.2 8.0 0.00 0.00 0.00 76 1014.3
20260504031523 9 217 3.2 11.3 0.00 0.00 0.00 75 1014.5
20260504030037 9 222 0.0 3.2 0.00 0.00 0.00 74 1014.5
20260504024520 10 222 0.0 4.8 0.00 0.00 0.00 74 1014.4
20260504023025 10 222 0.0 0.0 0.00 0.00 0.00 72 1014.4
20260504021518 10 222 0.0 0.0 0.00 0.00 0.00 70 1014.1
20260504020015 10 221 1.6 8.0 0.00 0.00 0.00 70 1013.9
20260504014532 10 218 1.6 6.4 0.00 0.00 0.00 69 1013.9
20260504013014 10 217 0.0 6.4 0.00 0.00 0.00 65 1013.8
20260504011515 10 218 0.0 6.4 0.00 0.00 0.00 66 1013.8
20260504010015 11 198 3.2 6.4 0.00 0.00 0.00 62 1013.9
20260504004512 12 119 1.6 6.4 0.00 0.00 0.00 59 1013.9
20260504003023 12 115 1.6 6.4 0.00 0.00 0.00 55 1013.8
20260504001510 13 101 3.2 8.0 0.00 0.00 0.00 51 1013.8
20260504000006 15 41 0.0 0.0 0.00 0.00 0.00 41 1013.9
20260503234515 16 41 0.0 3.2 0.00 0.00 0.00 39 1013.7
20260503233004 16 41 4.8 9.7 0.00 0.00 0.00 38 1013.8
20260503231503 16 44 4.8 11.3 0.00 0.00 0.00 38 1014.1
20260503230103 16 44 6.4 11.3 0.00 0.00 0.00 36 1014.2
20260503224558 16 14 8.0 14.5 0.00 0.00 0.00 35 1014.1
20260503223100 17 17 4.8 12.9 0.00 0.00 0.00 36 1014.4
20260503221557 17 67 9.7 19.3 0.00 0.00 0.00 35 1014.4
20260503220054 17 35 8.0 16.1 0.00 0.00 0.00 35 1014.4
20260503214552 17 17 11.3 20.9 0.00 0.00 0.00 34 1014.6
20260503213104 17 38 6.4 16.1 0.00 0.00 0.00 35 1014.6
20260503211548 17 9 11.3 30.6 0.00 0.00 0.00 35 1014.7
20260503210056 17 40 9.7 16.1 0.00 0.00 0.00 34 1014.9
20260503204550 17 80 11.3 19.3 0.00 0.00 0.00 34 1014.9
20260503203043 16 74 11.3 24.1 0.00 0.00 0.00 36 1015.2
20260503203040 16 71 11.3 24.1 0.00 0.00 0.00 36 1015.2
20260503201539 17 90 9.7 20.9 0.00 0.00 0.00 34 1015.5
20260503200037 17 360 12.9 20.9 0.00 0.00 0.00 33 1015.7
20260503194535 16 114 9.7 22.5 0.00 0.00 0.00 33 1016.3
20260503193035 17 135 6.4 14.5 0.00 0.00 0.00 33 1016.5
20260503191526 16 94 4.8 14.5 0.00 0.00 0.00 35 1016.7
20260503190027 16 62 11.3 20.9 0.00 0.00 0.00 37 1017.1
20260503184533 16 200 12.9 20.9 0.00 0.00 0.00 36 1017.1
20260503183019 16 65 9.7 22.5 0.00 0.00 0.00 38 1017.6
20260503181518 16 111 4.8 11.3 0.00 0.00 0.00 37 1017.8